{"data":{"norad_id":49445,"epoch":"2026-09-19T23:23:02.211360Z","epoch_age_seconds":86642,"freshness":"FRESH","line1":"1 49445U 21104AP  26262.97433115  .00001889  00000+0  68740-4 0  9999","line2":"2 49445  53.1598  54.3325 0001165  83.6592 276.4542 15.33548786268272","mean_motion":15.33548786,"eccentricity":0.0001165,"inclination_deg":53.1598,"raan_deg":54.3325,"arg_perigee_deg":83.6592,"mean_anomaly_deg":276.4542,"bstar":6.874e-5,"rev_number":26827,"period_min":93.89984936547,"perigee_km":464.4371450093,"apogee_km":466.03165054499,"semimajor_km":6843.3713977771,"source":"CELESTRAK","updated_at":"2026-09-20T09:00:39.399639Z"}}